Weather History for Douglas, WY

Change the Weather History Date:

Saturday, March 24, 2012

  Actual Average Record
Temperature  
Mean Temperature 47 °F 38 °F  
Max Temperature 62 °F 52 °F 71 °F (2004)
Min Temperature 31 °F 24 °F 9 °F (2013)
Degree Days  
Heating Degree Days 18 27  
Month to date heating degree days 537 735  
Since 1 July heating degree days 5702 6135  
Cooling Degree Days 0 0  
Month to date cooling degree days 0 0  
Year to date cooling degree days 0 0  
Moisture  
Dew Point 30 °F    
Average Humidity 61    
Maximum Humidity 89    
Minimum Humidity 32    
Precipitation  
Precipitation 0.00 in 0.04 in 0.17 in (2007)
Month to date precipitation T 0.61  
Year to date precipitation 0.71 1.40  
Sea Level Pressure  
Sea Level Pressure 30.05 in    
Wind  
Wind Speed 7 mph (ENE)    
Max Wind Speed 16 mph    
Max Gust Speed 21 mph    
Visibility 10 miles    
Events      
T = Trace of Precipitation, MM = Missing Value Source: NWS Daily Summary

Daily Weather History Graph

Daily Weather History Graph

Search for Another Location

Airport:

Trip Planner

Search our weather history database for the weather conditions in past years. The results will help you decide how hot, cold, wet, or windy it might be!

Date:

Astronomy

Mar. 24, 2012 Rise Set
Actual Time 6:56 AM MDT 7:19 PM MDT
Civil Twilight 6:28 AM MDT 7:47 PM MDT
Nautical Twilight 5:55 AM MDT 8:20 PM MDT
Astronomical Twilight 5:21 AM MDT 8:55 PM MDT
Moon 7:33 AM MDT (3/24) 9:45 PM MDT (3/24)
Length of Visible Light 13h 18m
Length of Day
12h 22m
Waxing Crescent, 4% of the Moon is Illuminated
Mar 24
Waxing Crescent
Mar 30
First Quarter
Apr 6
Full
Apr 13
Last Quarter
Apr 21
New

Hourly Weather History & Observations

Time (MDT) Temp. Windchill Dew Point Humidity Pressure Visibility Wind Dir Wind Speed Gust Speed Precip Events Conditions
12:53 AM 46.0 °F - 26.1 °F 46% 29.85 in 10.0 mi Calm Calm - N/A   Clear
1:53 AM 39.0 °F 33.4 °F 26.1 °F 60% 29.91 in 10.0 mi NW 8.1 mph - N/A   Clear
2:53 AM 42.1 °F 38.4 °F 30.9 °F 65% 29.94 in 10.0 mi WNW 5.8 mph - N/A   Clear
3:53 AM 39.0 °F 34.8 °F 32.0 °F 76% 29.98 in 10.0 mi NW 5.8 mph - N/A   Clear
4:53 AM 37.9 °F 31.5 °F 32.0 °F 79% 30.02 in 10.0 mi NW 9.2 mph - N/A   Clear
6:53 AM 32.0 °F 26.4 °F 28.0 °F 85% 30.10 in 10.0 mi NW 5.8 mph - N/A   Clear
7:53 AM 34.0 °F 28.0 °F 30.0 °F 85% 30.15 in 10.0 mi NW 6.9 mph - N/A   Clear
8:53 AM 44.1 °F 37.7 °F 30.9 °F 60% 30.14 in 10.0 mi NNW 12.7 mph - N/A   Clear
9:53 AM 48.0 °F - 30.9 °F 52% 30.13 in 10.0 mi NW 11.5 mph - N/A   Clear
10:53 AM 51.1 °F - 30.9 °F 46% 30.11 in 10.0 mi North 3.5 mph - N/A   Clear
11:53 AM 54.0 °F - 32.0 °F 43% 30.10 in 10.0 mi Calm Calm - N/A   Clear
12:53 PM 55.9 °F - 32.0 °F 40% 30.08 in 10.0 mi Variable 4.6 mph - N/A   Clear
1:53 PM 60.1 °F - 30.9 °F 33% 30.07 in 10.0 mi ESE 11.5 mph 19.6 mph N/A   Clear
2:53 PM 60.1 °F - 32.0 °F 35% 30.05 in 10.0 mi ESE 11.5 mph - N/A   Clear
4:53 PM 62.1 °F - 30.9 °F 31% 30.02 in 10.0 mi SE 15.0 mph - N/A   Clear
5:53 PM 61.0 °F - 30.0 °F 31% 30.03 in 10.0 mi SE 16.1 mph - N/A   Clear
6:53 PM 57.0 °F - 28.9 °F 34% 30.06 in 10.0 mi SE 15.0 mph - N/A   Clear
7:53 PM 52.0 °F - 27.0 °F 38% 30.07 in 10.0 mi East 10.4 mph - N/A   Clear
8:53 PM 50.0 °F - 28.0 °F 43% 30.07 in 10.0 mi ESE 17.3 mph 24.2 mph N/A   Clear
9:53 PM 46.9 °F - 28.9 °F 50% 30.07 in 10.0 mi SE 13.8 mph - N/A   Clear
10:53 PM 44.1 °F 37.4 °F 30.0 °F 58% 30.06 in 10.0 mi SE 13.8 mph - N/A   Clear
11:53 PM 46.9 °F - 30.9 °F 54% 30.03 in 10.0 mi SSE 18.4 mph - N/A   Clear